Meteo pe oră la Ali Bayramli

Astăzi, 19 Ianuarie, Marţi

Timp Temperatura Precipitaţii Vânt Presiune Umiditate
00:00 +3°C° 0.1 mm 5 m/s 757 mmHg 78%
01:00 +3°C° 0 mm 5 m/s 757 mmHg 80%
02:00 +3°C° 0 mm 5 m/s 758 mmHg 81%
03:00 +2°C° 0 mm 5 m/s 758 mmHg 84%
04:00 +2°C° 0 mm 5 m/s 758 mmHg 84%
05:00 +4°C° 0 mm 4 m/s 759 mmHg 83%
06:00 +4°C° 0 mm 4 m/s 760 mmHg 83%
07:00 +4°C° 0 mm 4 m/s 760 mmHg 82%
08:00 +4°C° 0 mm 4 m/s 761 mmHg 82%
09:00 +4°C° 0 mm 4 m/s 761 mmHg 80%
10:00 +3°C° 0 mm 5 m/s 761 mmHg 79%
11:00 +3°C° 0 mm 6 m/s 761 mmHg 78%
12:00 +2°C° 0 mm 8 m/s 761 mmHg 78%
13:00 +1°C° 0 mm 8 m/s 761 mmHg 76%
14:00 +1°C° 0 mm 8 m/s 760 mmHg 74%
15:00 +1°C° 0 mm 8 m/s 760 mmHg 72%
16:00 0°C° 0.1 mm 9 m/s 760 mmHg 73%
17:00 0°C° 0.1 mm 9 m/s 761 mmHg 75%
18:00 0°C° 0.1 mm 9 m/s 761 mmHg 77%
19:00 -1°C° 0.9 mm 9 m/s 761 mmHg 83%
20:00 -2°C° 0.9 mm 8 m/s 761 mmHg 89%
21:00 -2°C° 0.9 mm 8 m/s 761 mmHg 95%
22:00 -2°C° 0.8 mm 7 m/s 762 mmHg 95%
23:00 -2°C° 0.8 mm 6 m/s 762 mmHg 95%

Mâine, 20 Ianuarie, Miercuri

Timp Temperatura Precipitaţii Vânt Presiune Umiditate
00:00 -2°C° 0.8 mm 6 m/s 762 mmHg 95%
01:00 -2°C° 0.4 mm 6 m/s 762 mmHg 95%
02:00 -2°C° 0.4 mm 5 m/s 762 mmHg 95%
03:00 -2°C° 0.4 mm 5 m/s 762 mmHg 95%
04:00 -2°C° 0.3 mm 5 m/s 762 mmHg 95%
05:00 -2°C° 0.3 mm 5 m/s 762 mmHg 96%
06:00 -2°C° 0.3 mm 5 m/s 762 mmHg 96%
07:00 -2°C° 0.6 mm 5 m/s 762 mmHg 97%
08:00 -1°C° 0.6 mm 5 m/s 762 mmHg 97%
09:00 -1°C° 0.6 mm 5 m/s 762 mmHg 97%
10:00 -1°C° 0.4 mm 5 m/s 762 mmHg 97%
11:00 -1°C° 0.4 mm 5 m/s 761 mmHg 97%
12:00 -1°C° 0.4 mm 5 m/s 761 mmHg 98%
13:00 -1°C° 0.7 mm 4 m/s 761 mmHg 98%
14:00 -1°C° 0.7 mm 4 m/s 761 mmHg 98%
15:00 0°C° 0.7 mm 3 m/s 761 mmHg 98%
16:00 -1°C° 0.9 mm 4 m/s 761 mmHg 97%
17:00 -1°C° 0.9 mm 4 m/s 762 mmHg 96%
18:00 -2°C° 0.9 mm 4 m/s 763 mmHg 96%
19:00 -1°C° 0.2 mm 4 m/s 763 mmHg 93%
20:00 -1°C° 0.2 mm 4 m/s 763 mmHg 91%
21:00 -1°C° 0.2 mm 4 m/s 763 mmHg 89%
22:00 0°C° 0.3 mm 3 m/s 764 mmHg 90%
23:00 0°C° 0.3 mm 3 m/s 764 mmHg 92%

Poimâine, 21 Ianuarie, Joi

Timp Temperatura Precipitaţii Vânt Presiune Umiditate
00:00 +1°C° 0.3 mm 2 m/s 765 mmHg 93%
01:00 +1°C° 0.1 mm 2 m/s 765 mmHg 94%
02:00 -1°C° 0.1 mm 2 m/s 765 mmHg 94%
03:00 -1°C° 0.1 mm 2 m/s 765 mmHg 95%
04:00 -1°C° 0 mm 2 m/s 766 mmHg 91%
05:00 -1°C° 0 mm 3 m/s 766 mmHg 88%
06:00 -1°C° 0 mm 3 m/s 767 mmHg 84%
07:00 0°C° 0 mm 3 m/s 768 mmHg 83%
08:00 0°C° 0 mm 3 m/s 768 mmHg 82%
09:00 0°C° 0 mm 3 m/s 769 mmHg 81%
10:00 +2°C° 0 mm 2 m/s 769 mmHg 78%
11:00 +2°C° 0 mm 2 m/s 769 mmHg 75%
12:00 +3°C° 0 mm 2 m/s 770 mmHg 72%
13:00 +3°C° 0 mm 2 m/s 770 mmHg 70%
14:00 +4°C° 0 mm 1 m/s 770 mmHg 69%
15:00 +4°C° 0 mm 1 m/s 770 mmHg 67%
16:00 +4°C° 0 mm 1 m/s 771 mmHg 71%
17:00 +3°C° 0 mm 1 m/s 771 mmHg 75%
18:00 +2°C° 0 mm 1 m/s 772 mmHg 78%
19:00 +1°C° 0 mm 2 m/s 772 mmHg 78%
20:00 +1°C° 0 mm 2 m/s 772 mmHg 78%
21:00 +1°C° 0 mm 2 m/s 773 mmHg 77%
22:00 -1°C° 0 mm 2 m/s 773 mmHg 78%
23:00 +1°C° 0 mm 1 m/s 773 mmHg 79%

22 Ianuarie, Vineri

Timp Temperatura Precipitaţii Vânt Presiune Umiditate
00:00 +1°C° 0 mm 1 m/s 773 mmHg 80%
01:00 -1°C° 0 mm 2 m/s 773 mmHg 78%
02:00 -1°C° 0 mm 2 m/s 773 mmHg 76%
03:00 -1°C° 0 mm 3 m/s 773 mmHg 75%
04:00 -1°C° 0 mm 3 m/s 773 mmHg 75%
05:00 -2°C° 0 mm 3 m/s 773 mmHg 75%
06:00 -3°C° 0 mm 4 m/s 773 mmHg 75%
07:00 -2°C° 0 mm 4 m/s 773 mmHg 72%
08:00 -1°C° 0 mm 4 m/s 774 mmHg 69%
09:00 -1°C° 0 mm 5 m/s 774 mmHg 66%
10:00 0°C° 0 mm 5 m/s 774 mmHg 63%
11:00 +1°C° 0 mm 5 m/s 773 mmHg 60%
12:00 +2°C° 0 mm 5 m/s 773 mmHg 57%
13:00 +2°C° 0 mm 5 m/s 772 mmHg 57%
14:00 +4°C° 0 mm 4 m/s 772 mmHg 56%
15:00 +4°C° 0 mm 4 m/s 771 mmHg 56%
16:00 +3°C° 0 mm 4 m/s 771 mmHg 60%
17:00 +2°C° 0 mm 3 m/s 771 mmHg 64%
18:00 +1°C° 0 mm 3 m/s 771 mmHg 68%
19:00 +1°C° 0 mm 3 m/s 771 mmHg 68%
20:00 +1°C° 0 mm 2 m/s 771 mmHg 68%
21:00 +1°C° 0 mm 2 m/s 771 mmHg 68%
22:00 +1°C° 0 mm 2 m/s 771 mmHg 67%
23:00 -1°C° 0 mm 2 m/s 771 mmHg 67%

23 Ianuarie, Sâmbătă

Timp Temperatura Precipitaţii Vânt Presiune Umiditate
00:00 -1°C° 0 mm 2 m/s 771 mmHg 67%
01:00 -1°C° 0 mm 2 m/s 771 mmHg 66%
02:00 -1°C° 0 mm 2 m/s 770 mmHg 66%
03:00 -1°C° 0 mm 2 m/s 770 mmHg 66%
04:00 -1°C° 0 mm 2 m/s 770 mmHg 65%
05:00 -1°C° 0 mm 2 m/s 770 mmHg 63%
06:00 -1°C° 0 mm 2 m/s 770 mmHg 62%
07:00 -1°C° 0 mm 2 m/s 770 mmHg 59%
08:00 +1°C° 0 mm 2 m/s 770 mmHg 56%
09:00 +2°C° 0 mm 2 m/s 770 mmHg 53%
10:00 +2°C° 0 mm 3 m/s 770 mmHg 50%
11:00 +3°C° 0 mm 3 m/s 769 mmHg 47%
12:00 +4°C° 0 mm 3 m/s 769 mmHg 44%
13:00 +5°C° 0 mm 2 m/s 768 mmHg 44%
14:00 +5°C° 0 mm 2 m/s 768 mmHg 43%
15:00 +5°C° 0 mm 2 m/s 768 mmHg 43%
16:00 +4°C° 0 mm 2 m/s 767 mmHg 49%
17:00 +4°C° 0 mm 1 m/s 767 mmHg 54%
18:00 +3°C° 0 mm 1 m/s 767 mmHg 60%
19:00 +2°C° 0 mm 1 m/s 767 mmHg 61%
20:00 +2°C° 0 mm 1 m/s 767 mmHg 61%
21:00 +2°C° 0 mm 1 m/s 768 mmHg 61%
22:00 +2°C° 0 mm 1 m/s 767 mmHg 61%
23:00 +2°C° 0 mm 1 m/s 767 mmHg 61%

24 Ianuarie, Duminică

Timp Temperatura Precipitaţii Vânt Presiune Umiditate
00:00 +2°C° 0 mm 1 m/s 767 mmHg 60%
01:00 +2°C° 0 mm 1 m/s 767 mmHg 59%
02:00 +2°C° 0 mm 1 m/s 766 mmHg 58%
03:00 +2°C° 0 mm 1 m/s 766 mmHg 58%
04:00 -1°C° 0 mm 2 m/s 766 mmHg 57%
05:00 -1°C° 0 mm 2 m/s 766 mmHg 56%
06:00 -1°C° 0 mm 2 m/s 766 mmHg 55%
07:00 +1°C° 0 mm 2 m/s 766 mmHg 52%
08:00 +2°C° 0 mm 2 m/s 766 mmHg 49%
09:00 +3°C° 0 mm 2 m/s 766 mmHg 46%
10:00 +3°C° 0 mm 3 m/s 765 mmHg 44%
11:00 +4°C° 0 mm 3 m/s 765 mmHg 42%
12:00 +5°C° 0 mm 3 m/s 764 mmHg 41%
13:00 +5°C° 0 mm 3 m/s 764 mmHg 41%
14:00 +5°C° 0 mm 3 m/s 764 mmHg 41%
15:00 +7°C° 0 mm 3 m/s 763 mmHg 41%
16:00 +5°C° 0 mm 2 m/s 763 mmHg 46%
17:00 +4°C° 0 mm 2 m/s 763 mmHg 51%
18:00 +3°C° 0 mm 2 m/s 763 mmHg 56%
19:00 +3°C° 0 mm 2 m/s 763 mmHg 57%
20:00 +3°C° 0 mm 2 m/s 763 mmHg 59%
21:00 +2°C° 0 mm 2 m/s 763 mmHg 60%
22:00 +2°C° 0 mm 2 m/s 763 mmHg 61%
23:00 +2°C° 0 mm 2 m/s 763 mmHg 62%
Arată mai mult

Formular de consimțământ

Meteoprog și furnizorii noștri de servicii pot stoca și accesa date personale, precum cookies, identificatori de dispozitiv sau alte tehnologii similare pe dispozitivul dumneavoastră și procesa astfel de date pentru a personaliza conținutul și reclamele, dar și pentru a oferi caracteristici de social media și pentru a analiza traficul.

  • Stocarea și/sau accesarea informațiilor pe dispozitivul dumneavoastră

    Cookies, identificatori de dispozitiv sau alte informații pot fi stocate sau accesate pe dispozitiv în scopurile indicate mai sus.

  • Reclame și conținut personalizat, evaluarea reclamelor și a conținutului, informații despre audiențe și dezvoltarea produselor

    Reclamele și conținutul pot fi personalizate pe baza unui profil. Pot fi adăugate date suplimentare pentru a personaliza mai bine reclamele și conținutul. Performanța reclamelor și conținutului poate fi măsurată. Pot fi obținute informații despre utilizatorii care au văzut reclamele și conținutul. Aceste date pot fi utilizate pentru a dezvolta sau îmbunătăți experiența utilizatorilor, sistemele și software-ul.

Dând clic pe ‘Sunt de acord’, permiteți utilizarea cookie-urilor menționate, a identificatorilor de dispozitiv, balizelor web sau altor tehnologii similare. Setările pot fi modificate din browser-ul dispozitivului dumneavoastră.

În anumite scopuri, interesele legitime pot prima asupra consimțământului. Puteți citi mai multe informații în acest sens în Politica privind Confidențialitatea Datelor și Cookie.